Regional Weather Roundup
Issued by NWS Kansas City/Pleasant Hill, MO

Home | Current Version | Previous Version | Graphics & Text | Print | Product List | Glossary Off
Versions: 1 2 3 4 5 6 7 8 9 10 11 12 13 14 15 16 17 18 19 20 21 22 23 24 25 26 27 28 29 30 31 32 33 34 35 36 37 38 39 40 41 42 43 44 45 46 47 48 49 50

000
ASUS43 KEAX 261610
RWREAX

WEATHER ROUNDUP FOR EASTERN KANSAS AND NORTHWEST MISSOURI
NATIONAL WEATHER SERVICE KANSAS CITY/PLEASANT HILL MO
1100 AM CDT SUN MAR 26 2017

KSZ040-057-103>105-MOZ028-029-037-043-261700-
...KANSAS CITY METROPOLITAN AREA...

CITY           SKY/WX    TMP DP  RH WIND       PRES   REMARKS
K.C. INTL      CLOUDY    46  43  89 W6        29.93S
K.C. DOWNTOWN  CLOUDY    50  42  74 SW7       29.93R
LEES SUMMIT    CLOUDY    48  42  80 W7        29.93S
OLATHE - IXD   CLOUDY    47  42  83 SW8       29.94R
OLATHE - OJC   CLOUDY    46  43  89 W9        29.93S
LAWRENCE       CLOUDY    47  43  86 SW7       29.95R

$$

MOZ001>008-011>017-020>025-030>033-038>040-044>046-053-054-261700-
...NORTHERN AND CENTRAL MISSOURI...

CITY           SKY/WX    TMP DP  RH WIND       PRES   REMARKS
ST. JOSEPH     CLOUDY    45  43  93 W9        29.94R
WARRENSBURG    CLOUDY    48  43  81 SW7       29.93S
WHITEMAN AFB   CLOUDY    49  49 100 W10       29.92R
CLINTON        CLOUDY    50  46  87 SW9       29.94S
SEDALIA        CLOUDY    50  48  93 W9        29.94R
WARSAW         NOT AVBL
CHILLICOTHE      N/A     45  42  89 VRB5      29.92R
KIRKSVILLE     CLOUDY    46  45  96 W9        29.88S

$$

MOZ041-047>049-056>058-063>065-088>090-097-261700-
...EASTERN AND SOUTHERN MISSOURI...

CITY           SKY/WX    TMP DP  RH WIND       PRES   REMARKS
ST. LOUIS INTL CLOUDY    55  47  74 SW9       29.91S
SPIRIT OF STL  CLOUDY    54  49  83 SW10      29.91R
COLUMBIA       CLOUDY    50  49  96 W7        29.90S FOG
JEFFERSON CITY CLOUDY    54  48  80 SW10      29.91S
ROLLA          CLOUDY    52  49  89 SW8       29.90F
OSAGE BEACH    CLOUDY   N/A N/A N/A VRB6      29.93R
SPRINGFIELD    PTSUNNY   55  47  74 SW10      29.94R
BRANSON        PTSUNNY   54  46  76 SW5       29.98R
JOPLIN         PTSUNNY   55  46  71 SW8       29.96R
WEST PLAINS    CLOUDY    53  47  79 S5        29.96R

$$

IAZ060-094-KSZ022-034>040-054-083-096-NEZ052-066-093-261700-
...KANSAS...SOUTHEAST NEBRASKA AND IOWA...

CITY           SKY/WX    TMP DP  RH WIND       PRES   REMARKS
TOPEKA         CLOUDY    47  43  86 W5        29.93S
MANHATTAN      CLOUDY    46  42  86 CALM      29.94R
EMPORIA        CLOUDY    46  45  96 SE5       29.94R
CHANUTE        CLOUDY    49  45  86 S9        29.96R
WICHITA        CLOUDY    45  44  97 SE6       29.93S FOG
OMAHA          CLOUDY    43  38  82 N6        29.92R
LINCOLN        CLOUDY    43  40  89 N5        29.95R
FALLS CITY     CLOUDY    44  41  89 W7        29.93R
LAMONI         CLOUDY    45  42  89 NW7       29.87F
DES MOINES     CLOUDY    42  41  96 NW7       29.89R FOG

$$




USA.gov is the U.S. government's official web portal to all federal, state and local government web resources and services.